TimeEDT,TemperatureF,Dew PointF,Humidity,Sea Level PressureIn,VisibilityMPH,Wind Direction,Wind SpeedMPH,Gust SpeedMPH,PrecipitationIn,Events,Conditions,WindDirDegrees,DateUTC
12:53 AM,18.0,5.0,57,30.01,10.0,West,8.1,-,N/A,,Clear,280,2013-03-15 04:53:00
1:53 AM,17.1,6.1,62,30.00,10.0,West,5.8,-,N/A,,Mostly Cloudy,260,2013-03-15 05:53:00
2:53 AM,12.9,5.0,71,30.00,10.0,SW,3.5,-,N/A,,Clear,220,2013-03-15 06:53:00
3:53 AM,14.0,6.1,71,29.96,10.0,SW,5.8,-,N/A,,Partly Cloudy,220,2013-03-15 07:53:00
4:53 AM,14.0,6.1,71,29.93,10.0,SSW,5.8,-,N/A,,Clear,200,2013-03-15 08:53:00
5:53 AM,14.0,7.0,74,29.90,10.0,South,4.6,-,N/A,,Mostly Cloudy,180,2013-03-15 09:53:00
6:53 AM,12.9,6.1,74,29.88,10.0,South,3.5,-,N/A,,Scattered Clouds,180,2013-03-15 10:53:00
7:53 AM,15.1,7.0,70,29.85,10.0,South,4.6,-,N/A,,Overcast,170,2013-03-15 11:53:00
8:53 AM,19.9,8.1,60,29.83,10.0,SSW,9.2,-,N/A,,Mostly Cloudy,210,2013-03-15 12:53:00
9:53 AM,24.1,10.0,55,29.79,10.0,South,9.2,-,N/A,,Mostly Cloudy,190,2013-03-15 13:53:00
10:53 AM,28.0,15.1,58,29.74,10.0,SSW,12.7,-,N/A,,Overcast,210,2013-03-15 14:53:00
11:53 AM,30.0,19.0,64,29.68,10.0,SSW,12.7,-,N/A,,Overcast,210,2013-03-15 15:53:00
12:46 PM,30.2,23.0,75,29.63,2.5,SSW,16.1,-,0.00,Snow,Light Snow,210,2013-03-15 16:46:00
12:53 PM,30.9,23.0,72,29.65,1.8,SW,17.3,-,0.00,Snow,Light Snow,220,2013-03-15 16:53:00
1:02 PM,30.2,24.8,80,29.62,2.5,SW,10.4,-,0.00,Snow,Light Snow,230,2013-03-15 17:02:00
1:24 PM,30.2,24.8,80,29.61,1.2,SW,16.1,21.9,0.00,Snow,Light Snow,230,2013-03-15 17:24:00
1:43 PM,30.2,26.6,86,29.61,0.8,SW,16.1,24.2,0.00,Snow,Light Snow,230,2013-03-15 17:43:00
1:53 PM,30.9,27.0,85,29.63,0.8,SW,12.7,20.7,0.00,Snow,Light Snow,220,2013-03-15 17:53:00
1:59 PM,32.0,26.6,80,29.60,1.5,SW,15.0,20.7,0.00,Snow,Light Snow,220,2013-03-15 17:59:00
2:10 PM,32.0,26.6,80,29.60,2.5,WSW,11.5,20.7,0.00,Snow,Light Snow,240,2013-03-15 18:10:00
2:19 PM,32.0,26.6,80,29.60,4.0,WSW,10.4,-,0.00,Snow,Light Snow,250,2013-03-15 18:19:00
2:53 PM,33.1,25.0,72,29.61,10.0,WSW,15.0,19.6,0.00,,Overcast,250,2013-03-15 18:53:00
3:06 PM,33.8,24.8,70,29.59,10.0,West,12.7,-,N/A,,Mostly Cloudy,270,2013-03-15 19:06:00
3:37 PM,33.8,24.8,70,29.59,2.5,WNW,10.4,-,0.00,Snow,Light Snow,300,2013-03-15 19:37:00
3:43 PM,32.0,24.8,75,29.59,1.2,West,9.2,-,0.00,Snow,Light Snow,280,2013-03-15 19:43:00
3:53 PM,32.0,26.1,79,29.61,1.2,West,5.8,-,0.00,Snow,Light Snow,280,2013-03-15 19:53:00
4:04 PM,30.2,26.6,86,29.59,0.5,WNW,8.1,-,0.00,Fog-Snow,Snow,290,2013-03-15 20:04:00
4:18 PM,30.2,28.4,93,29.59,0.5,NW,4.6,-,0.00,Fog-Snow,Snow,320,2013-03-15 20:18:00
4:28 PM,30.2,28.4,93,29.59,0.5,NNW,6.9,-,0.01,Fog-Snow,Snow,330,2013-03-15 20:28:00
4:53 PM,30.0,26.1,85,29.62,0.5,West,6.9,16.1,0.01,Fog-Snow,Snow,280,2013-03-15 20:53:00
5:04 PM,30.2,26.6,86,29.60,2.0,West,9.2,-,0.00,Snow,Light Snow,280,2013-03-15 21:04:00
5:12 PM,30.2,24.8,80,29.60,7.0,WNW,9.2,-,0.00,Snow,Light Snow,290,2013-03-15 21:12:00
5:53 PM,30.9,23.0,72,29.64,10.0,WNW,6.9,-,0.00,,Scattered Clouds,300,2013-03-15 21:53:00
6:53 PM,30.9,21.0,67,29.68,10.0,NW,10.4,-,0.00,,Overcast,310,2013-03-15 22:53:00
7:53 PM,28.9,17.1,61,29.71,10.0,West,11.5,-,N/A,,Partly Cloudy,280,2013-03-15 23:53:00
8:53 PM,28.0,14.0,56,29.74,10.0,West,11.5,-,N/A,,Mostly Cloudy,280,2013-03-16 00:53:00
9:53 PM,27.0,16.0,63,29.78,10.0,WNW,11.5,-,N/A,,Overcast,290,2013-03-16 01:53:00
10:53 PM,25.0,16.0,69,29.82,10.0,West,9.2,-,N/A,,Scattered Clouds,280,2013-03-16 02:53:00
11:53 PM,24.1,15.1,69,29.84,10.0,West,5.8,-,N/A,,Scattered Clouds,280,2013-03-16 03:53:00